Location: Newark
(47.5989°N, 4.6950°E)
Time: 20:02:47
(UTC+00:00)

Envisat - Pass Details

Date: 18 November 2019
Orbit: 764 x 766 km, 98.1° (Epoch: 06 December)

Event Time Altitude Azimuth Distance (km) Brightness Sun altitude
Rises 04:56:48 0° 34° (NE) 3,241 6.6 -18.9°
Reaches altitude 10° 05:01:30 10° 74° (ENE) 2,306 6.5 -18.1°
Maximum altitude 05:02:27 11° 85° (E) 2,272 6.6 -18.0°
Drops below altitude 10° 05:03:24 10° 96° (E) 2,303 6.8 -17.8°
Sets 05:08:03 0° 135° (SE) 3,220 7.2 -17.0°
